Theta_e
327 322 317 317 315 311 312 302 296 294 286 286 283 287 290 293 294 294 294 293 295 296 296 297 295 299 299 295 297 296 295 293 293 288 293 296 306 313 322 325 325 335 335 337 342 344 346 346 350 351 353 353 353 354 354 354 353 352 352 351 350 350 349 349 348 347 346 346 346 345 345 346 346 346 346 346 346 346 346 346 346 346 347 348 348 348 348 348 347 346 345 343 341 340 339 338 337
323 320 318 315 313 308 304 296 291 284 284 284 287 286 288 290 293 292 293 293 296 299 296 297 295 296 295 294 294 296 297 297 297 299 298 305 311 318 321 324 330 334 335 337 342 344 345 345 348 352 353 354 354 354 354 353 352 352 352 350 350 350 349 348 348 346 347 347 346 346 345 345 346 345 346 346 345 346 346 346 346 346 347 347 347 347 348 347 346 344 343 342 340 338 337 336 335
322 319 318 311 311 306 301 295 293 281 283 283 282 286 289 292 292 292 292 294 296 295 294 297 296 298 297 297 297 295 295 298 296 303 308 311 311 313 322 324 331 335 336 338 341 344 344 345 345 351 353 353 353 354 353 353 352 352 351 350 350 350 349 348 347 346 347 348 347 345 345 345 345 346 345 345 345 345 346 346 346 346 347 347 346 346 346 346 344 342 341 340 339 337 335 334 333
317 316 316 306 305 299 294 289 286 284 285 280 283 286 290 292 290 292 293 293 294 294 297 300 300 300 299 295 298 297 295 298 300 309 305 310 308 306 324 325 329 335 335 338 341 343 344 344 345 350 352 353 353 353 353 352 352 351 351 350 350 349 349 348 347 347 348 348 347 347 346 345 345 346 345 346 345 345 345 346 346 346 346 346 346 346 345 344 343 341 340 339 338 336 334 332 331
314 317 312 304 299 299 291 288 286 282 283 283 286 289 289 290 293 295 294 294 294 296 297 298 297 298 300 299 298 297 298 298 301 306 308 308 311 310 324 326 332 335 335 337 340 342 343 343 344 348 352 353 353 353 353 352 352 351 350 350 349 349 349 348 347 347 347 348 348 348 348 348 347 347 346 345 345 345 344 345 345 346 346 346 345 345 344 343 341 340 339 338 337 335 333 331 329
311 310 310 307 301 299 292 289 289 287 284 287 288 288 288 290 292 292 295 292 296 295 297 295 298 299 298 299 297 301 297 301 302 307 309 311 316 318 325 330 334 334 334 336 339 341 342 342 345 347 351 352 353 353 352 352 351 351 350 350 349 349 348 347 346 347 347 348 347 348 348 348 347 347 347 345 345 344 345 345 345 346 346 345 345 344 343 341 340 338 336 336 336 333 330 328 327
313 305 303 301 300 296 291 284 286 284 291 289 290 290 291 290 292 295 295 297 299 299 296 299 296 296 296 297 299 300 298 303 307 308 311 313 317 322 327 332 333 333 333 336 337 339 340 341 346 349 350 351 353 352 352 352 351 351 350 350 349 348 348 348 347 347 348 348 348 348 348 348 348 347 346 346 345 344 344 345 346 346 345 345 344 342 341 339 337 336 335 335 335 332 328 327 326
311 306 300 294 292 290 287 284 287 286 292 290 292 291 291 291 290 295 294 295 296 298 298 296 295 296 296 295 297 297 298 304 307 313 314 315 320 319 325 332 331 332 333 334 336 338 338 340 346 347 350 351 351 351 352 351 350 351 350 348 348 348 348 348 347 347 347 347 348 348 348 348 348 347 347 345 345 344 344 345 345 346 345 344 342 340 339 337 336 335 334 335 334 330 327 326 324
306 304 299 296 290 287 284 289 290 289 290 291 291 292 303 292 292 293 295 294 296 296 294 297 296 295 294 295 295 297 299 303 311 315 316 318 320 318 325 330 331 330 331 333 335 335 337 338 343 346 347 351 351 351 351 351 350 350 349 348 348 348 348 349 347 347 348 348 348 348 348 348 348 347 346 345 344 344 344 345 345 345 343 342 340 339 338 337 338 335 335 335 333 329 326 325 323
305 300 293 293 288 287 283 287 287 291 290 292 291 295 294 294 294 295 295 295 296 294 296 296 296 298 296 295 296 301 305 304 309 316 316 318 320 319 319 323 326 330 330 332 333 334 336 337 339 343 346 349 350 350 351 351 350 350 349 348 348 348 348 348 347 347 348 348 348 348 348 348 346 346 346 346 345 345 345 345 344 343 343 341 339 338 337 337 337 336 336 335 332 328 325 324 323
299 296 295 288 283 283 284 286 284 288 290 291 291 293 293 294 295 293 294 296 292 294 294 295 298 296 295 295 295 299 299 305 312 313 316 317 318 319 319 317 320 328 331 330 331 332 334 337 335 340 342 345 347 348 349 350 350 350 349 348 348 348 348 348 348 347 348 348 348 349 348 348 347 347 346 345 345 345 345 344 343 343 342 340 339 338 336 335 336 336 335 334 329 326 324 323 321
299 293 290 283 285 285 285 286 286 288 290 290 296 296 293 295 294 295 295 296 293 293 295 297 298 295 294 292 295 298 298 305 309 309 310 312 318 318 318 316 318 325 327 330 330 332 332 334 336 336 336 337 343 345 346 347 348 349 348 348 348 348 348 348 348 348 349 348 349 348 348 348 348 347 346 345 345 345 345 344 344 342 341 340 339 338 336 336 336 335 334 331 328 326 324 321 318
296 291 287 285 288 287 286 287 287 290 286 290 293 297 294 296 296 295 293 292 291 293 295 296 298 297 294 296 296 294 302 305 306 306 306 311 316 314 315 318 319 321 326 326 330 331 331 333 336 338 337 333 334 338 341 342 344 346 347 347 346 347 347 347 348 348 348 348 348 349 347 347 345 346 346 345 344 344 344 344 344 342 341 341 339 337 336 335 333 337 333 331 328 326 323 321 318
296 293 290 290 285 285 286 288 286 290 289 293 290 292 293 296 294 294 291 294 293 295 297 296 297 296 296 292 289 290 297 299 299 306 308 311 312 313 315 315 317 319 321 326 330 330 331 332 335 337 338 337 338 335 334 338 341 343 344 344 344 344 345 346 346 346 346 346 345 344 342 341 343 344 344 345 344 344 344 343 342 341 341 340 339 337 335 332 336 334 332 330 328 326 323 320 318
300 293 286 286 284 285 288 290 290 285 292 292 296 293 293 297 293 291 295 294 295 294 297 297 300 297 291 294 292 294 302 301 303 309 311 312 311 313 311 314 317 318 319 323 326 328 330 331 334 336 336 338 339 340 339 337 335 339 341 341 342 342 343 343 344 342 341 342 340 338 337 336 337 338 341 342 341 339 338 339 341 342 340 340 338 338 335 333 334 333 332 330 328 325 323 320 317
297 292 288 288 285 285 289 289 285 286 292 293 293 292 294 295 295 298 297 297 297 298 297 299 299 298 295 296 297 297 297 296 306 309 311 311 309 311 311 310 315 316 317 319 325 325 328 330 332 335 338 339 340 341 341 339 333 332 336 338 338 339 340 341 340 338 337 334 335 334 332 332 331 334 330 334 335 336 334 332 337 340 340 339 337 336 333 334 334 332 331 329 327 325 323 319 315
295 292 291 282 287 287 291 289 286 290 290 289 291 294 295 293 293 296 297 295 297 296 296 296 300 298 296 296 298 297 304 307 310 311 311 309 307 309 309 311 311 314 317 317 318 325 327 331 332 334 336 339 340 341 341 341 339 331 331 332 333 335 336 336 337 333 330 330 330 329 327 331 334 336 333 335 329 334 327 326 335 338 339 338 336 337 333 333 333 332 330 329 327 324 321 317 315
291 287 284 285 284 287 289 291 289 293 293 293 293 293 295 293 294 297 297 296 290 291 294 294 295 296 297 296 299 301 304 308 308 310 309 309 306 308 308 309 311 317 317 318 316 318 327 331 333 334 335 337 339 340 341 341 341 334 338 337 334 334 331 330 333 334 329 331 327 330 330 330 332 335 335 332 333 332 327 323 327 334 337 333 334 335 332 333 333 331 330 328 326 323 317 298 299
289 287 285 286 283 290 293 293 291 293 293 292 293 291 295 294 295 296 296 292 290 295 297 295 295 295 297 297 296 297 305 305 306 305 304 305 305 305 306 307 309 311 315 317 318 319 321 328 330 334 335 336 338 339 340 339 340 339 339 339 337 331 331 330 334 333 333 332 330 330 328 329 333 335 336 332 331 325 328 321 325 329 333 330 331 332 334 333 332 331 329 327 325 319 301 296 294
293 291 288 285 288 290 292 292 295 292 296 293 294 293 293 295 295 296 296 292 291 293 295 294 296 296 296 295 295 294 300 299 299 301 301 301 301 302 303 304 305 306 310 313 317 316 319 321 326 330 332 334 336 337 338 338 338 338 339 340 339 337 336 335 335 335 334 333 330 330 329 328 332 334 329 324 324 328 326 320 322 325 327 325 325 327 330 332 331 330 329 325 316 304 295 295 293
295 291 288 289 290 293 294 293 294 292 293 295 294 292 292 293 292 296 294 293 295 294 294 295 296 297 296 295 295 294 293 294 295 295 295 295 296 297 299 301 301 303 305 309 311 315 316 319 320 324 328 331 335 336 336 337 337 337 338 338 338 338 336 336 336 336 335 333 332 333 331 330 331 332 331 329 328 327 325 324 324 323 323 322 321 321 320 317 322 315 312 309 300 299 296 293 292
295 293 291 292 291 293 294 293 292 293 291 295 291 293 295 296 296 294 294 292 293 296 297 294 295 296 295 294 294 294 294 294 295 295 295 295 295 295 296 296 297 296 298 306 307 308 312 317 320 322 324 328 332 334 335 336 335 336 336 337 336 336 336 334 334 337 336 335 334 334 332 330 330 330 328 327 326 325 324 322 322 322 320 320 320 319 314 312 310 309 308 304 299 297 294 292 292
294 291 292 293 292 295 294 294 292 293 294 293 292 295 294 294 294 292 294 295 297 298 296 296 295 294 294 295 294 294 294 294 294 294 294 294 294 295 295 296 296 296 296 297 298 299 303 312 317 321 323 325 328 331 333 334 335 336 336 336 335 334 334 336 336 333 334 335 334 333 332 330 328 327 326 326 325 323 323 322 321 320 320 318 316 318 314 309 307 308 305 304 297 297 296 294 292
295 292 291 294 293 295 295 296 294 291 293 292 293 292 293 292 293 292 292 297 298 296 294 294 295 295 295 293 293 293 293 293 293 294 294 294 294 295 295 295 296 296 295 297 298 299 300 301 311 319 322 323 324 326 329 331 332 333 334 334 335 332 332 331 333 336 334 331 332 332 331 331 329 326 325 324 324 321 321 321 320 318 318 317 314 316 314 307 305 306 305 300 299 296 296 296 293
294 293 292 293 292 292 292 290 291 291 291 291 292 292 294 292 292 293 296 298 296 294 294 294 294 293 293 292 292 292 292 292 292 293 294 294 294 295 295 295 296 296 297 297 298 299 300 302 305 316 319 321 321 324 327 328 327 329 330 332 333 331 333 333 333 332 332 332 331 329 328 329 326 326 325 323 321 321 320 319 318 318 318 316 314 314 313 309 305 305 304 302 299 297 295 295 293
293 293 292 290 292 291 292 292 292 291 293 292 293 294 293 291 293 293 297 297 294 293 293 293 292 292 292 291 291 291 291 291 292 292 293 293 294 294 294 294 295 296 296 297 298 299 300 304 307 313 317 320 319 322 324 324 325 326 328 330 332 331 332 333 329 331 331 331 329 329 329 329 327 326 324 322 321 320 318 317 317 316 316 315 314 314 311 310 307 303 302 303 302 298 296 294 295
293 291 290 292 293 291 291 290 293 293 293 292 292 293 291 292 293 289 291 294 293 292 291 291 291 291 291 291 291 291 291 291 291 292 292 293 293 293 293 294 294 295 296 297 298 299 301 303 308 309 316 315 316 320 319 322 321 323 321 324 328 330 330 331 330 332 331 330 330 329 328 328 327 325 324 322 319 319 318 317 317 316 315 314 314 314 309 309 305 306 306 304 303 300 299 293 293
291 292 291 290 289 290 291 290 292 291 293 289 292 290 290 290 292 291 294 292 292 291 290 291 290 290 290 290 290 291 291 291 291 291 291 291 291 292 292 292 293 294 295 296 297 299 301 303 307 310 312 314 316 316 315 317 317 318 316 320 322 325 325 326 328 329 327 329 328 327 327 327 326 324 323 321 321 319 317 317 316 315 316 314 313 312 309 306 306 302 301 301 300 298 295 292 291
293 292 291 288 289 292 293 293 293 293 293 290 290 291 291 291 289 294 293 291 291 290 290 289 289 290 289 290 290 290 290 291 291 291 291 291 292 292 291 293 293 293 295 296 297 299 300 302 306 309 311 312 314 314 315 313 315 316 317 319 319 319 323 324 325 326 328 328 327 327 326 326 324 325 322 321 318 317 317 315 314 314 315 314 312 309 308 306 304 302 299 298 297 296 295 293 292
292 289 289 289 287 289 292 291 289 292 292 289 292 286 286 287 292 294 292 290 290 290 290 289 289 289 289 289 289 289 290 290 290 290 291 291 291 292 291 292 294 293 295 296 297 298 300 302 305 309 310 310 310 311 312 313 312 314 315 317 317 317 318 319 320 322 323 324 324 325 325 324 323 323 322 320 319 318 317 316 315 314 313 311 309 309 310 307 306 304 300 300 299 298 297 294 292
290 289 287 286 285 284 290 291 291 292 292 289 293 287 285 290 292 292 292 290 290 289 289 289 288 289 289 288 288 289 289 290 290 290 291 291 291 292 292 292 292 293 294 295 296 297 299 300 303 306 308 309 310 311 311 311 311 312 313 315 315 315 315 317 318 318 319 320 321 321 322 322 321 321 320 320 318 317 316 315 314 314 310 309 310 309 311 308 307 305 300 301 294 294 294 292 292
286 288 285 280 285 284 288 293 290 292 292 290 291 284 289 291 293 291 292 289 289 288 288 288 288 288 288 288 288 288 288 289 290 290 291 291 291 291 291 291 292 293 293 294 295 297 298 299 300 302 305 307 308 309 310 311 312 312 312 312 314 314 314 314 314 315 316 316 316 316 317 318 318 318 317 317 316 314 314 313 312 308 308 308 309 307 308 307 305 303 299 300 297 293 292 291 290
282 286 282 283 282 283 288 291 289 291 291 291 291 288 284 290 289 291 290 288 288 288 287 287 287 287 288 287 288 287 288 288 289 289 290 290 291 291 291 291 291 292 293 293 294 295 297 297 298 299 301 303 305 307 309 309 310 310 310 310 310 311 312 313 314 315 315 315 315 314 314 315 315 315 315 315 315 313 312 313 310 308 307 308 307 306 307 306 304 303 297 297 300 298 292 292 289
283 282 284 282 285 284 285 289 291 288 291 289 289 288 286 291 291 291 290 288 288 288 287 287 287 287 287 287 287 287 287 287 287 288 289 289 290 290 291 292 292 291 293 293 293 294 295 296 297 298 299 301 303 304 306 307 308 308 308 308 307 308 309 311 311 311 311 312 312 313 313 313 312 313 313 313 313 312 311 311 309 308 307 307 307 306 306 302 302 303 301 296 297 298 294 293 291
280 284 284 285 284 284 287 286 289 290 289 289 287 287 288 290 292 291 289 289 288 287 287 287 287 286 287 286 286 286 286 286 287 288 288 289 289 290 290 290 291 291 292 292 293 293 294 295 296 296 297 298 301 302 303 304 305 305 305 305 305 305 306 306 307 306 307 307 308 309 310 310 310 312 312 312 311 311 310 309 308 307 307 307 306 305 302 299 299 300 302 297 294 295 295 293 293
287 287 286 284 285 286 286 288 288 291 289 288 286 288 290 291 292 290 289 288 288 287 287 287 286 286 286 286 286 286 286 286 287 288 288 288 288 289 289 290 290 291 291 291 292 292 293 293 294 295 296 297 298 300 301 302 302 301 301 301 301 301 302 302 303 303 303 303 304 305 306 306 307 307 310 310 309 309 308 307 306 306 305 305 305 303 302 301 301 300 299 298 293 292 291 292 291
287 286 285 286 285 286 287 288 291 290 289 287 290 288 286 289 290 287 289 288 288 287 286 286 286 286 285 285 285 285 285 286 287 287 287 287 288 288 288 289 289 290 290 290 290 291 291 291 292 292 294 295 296 297 297 298 298 298 299 298 297 297 298 299 299 300 301 301 301 301 302 302 303 304 305 306 306 306 306 305 305 304 305 304 304 303 302 300 298 298 296 294 294 293 292 290 291
288 287 285 285 283 285 288 289 290 288 289 284 284 286 287 288 288 288 288 288 286 286 285 285 285 285 285 285 284 285 285 286 286 286 286 286 287 287 287 288 289 288 288 289 289 289 290 290 291 291 292 293 294 295 295 296 296 296 296 295 295 295 295 295 294 295 296 296 296 297 298 299 299 299 300 302 303 304 303 302 301 301 302 302 302 302 300 298 298 297 296 295 294 294 293 291 292
285 286 284 283 285 284 288 288 287 286 288 286 284 286 286 288 286 287 287 286 286 286 286 286 285 284 284 284 284 284 284 284 285 285 285 285 285 286 286 286 287 287 287 288 288 289 289 289 290 290 291 291 292 294 294 294 294 294 294 293 294 293 293 293 293 293 293 293 293 293 293 295 296 296 296 296 298 298 299 300 300 299 299 299 299 298 298 298 299 298 296 297 295 292 292 293 293
284 283 283 284 284 285 284 285 286 289 286 285 283 285 287 286 285 286 286 286 285 286 286 285 285 285 284 284 284 284 283 283 284 284 284 284 284 285 285 285 285 286 286 287 287 287 288 288 288 289 290 290 291 292 293 293 294 293 293 293 293 293 292 292 292 292 292 292 291 291 291 291 292 292 293 293 294 295 295 296 296 296 296 295 296 296 295 294 294 295 295 295 296 294 292 292 292
283 286 285 284 285 286 287 287 286 286 286 284 286 285 283 287 287 284 285 286 285 285 285 285 285 285 285 284 284 284 283 283 283 283 284 284 284 284 284 284 285 285 285 285 286 286 287 287 287 288 289 289 290 291 291 292 292 292 292 292 292 291 291 291 290 290 289 290 290 289 289 290 290 290 290 291 291 292 293 293 294 294 294 294 294 294 294 294 294 294 294 294 295 295 295 293 292
283 284 288 288 288 287 285 284 286 282 282 282 285 280 276 279 282 284 284 284 284 284 283 283 283 284 283 283 283 284 284 283 283 283 283 283 283 283 284 284 284 284 284 285 285 286 286 286 287 287 288 288 289 289 290 291 290 290 290 289 288 288 286 287 286 286 287 287 287 288 289 289 289 289 289 289 290 290 291 292 292 292 292 293 293 293 293 293 293 293 293 294 295 295 294 293 292
285 287 287 289 288 285 285 285 284 279 279 284 283 282 276 280 283 282 283 282 282 283 282 283 283 283 283 283 283 283 283 283 283 283 283 283 283 283 283 283 283 283 284 284 285 285 286 286 286 286 286 287 288 288 289 289 288 288 288 287 287 286 285 286 286 287 287 287 288 287 288 288 288 288 288 288 288 289 290 290 291 291 291 291 291 292 292 291 291 292 293 294 294 294 293 291 291
283 284 284 285 285 285 283 284 285 280 280 282 283 281 281 280 283 283 284 282 281 281 282 282 282 282 282 283 283 283 283 283 282 282 282 282 282 282 282 282 283 283 283 283 284 285 285 285 285 285 285 286 286 287 287 288 287 287 287 286 287 286 285 285 286 286 287 287 286 286 287 287 287 287 287 287 287 288 288 289 289 290 290 290 290 290 290 290 290 291 291 292 292 293 292 292 291
284 285 284 284 285 284 282 283 281 281 282 278 279 283 280 277 279 283 284 282 280 281 281 281 282 282 282 283 283 283 283 283 282 282 282 282 282 282 282 282 282 282 283 283 283 283 284 284 284 284 284 284 284 285 286 286 287 286 286 285 285 285 285 285 285 285 285 285 284 284 285 285 285 286 286 286 286 287 287 287 288 288 288 288 288 289 289 289 289 289 289 289 289 290 292 292 291
287 284 284 283 282 281 280 278 283 278 278 275 281 282 277 281 280 281 282 281 282 281 281 282 282 282 282 282 283 283 283 283 282 282 282 282 282 282 282 282 282 282 282 283 282 283 283 283 284 283 283 283 284 283 284 284 284 284 284 283 283 282 283 283 283 283 283 283 282 282 283 283 284 284 284 285 285 285 286 286 286 286 286 287 287 287 287 288 288 287 287 287 287 288 288 289 290
286 285 285 283 280 280 279 278 277 278 274 277 282 282 282 279 280 281 281 282 281 282 281 281 282 282 282 282 282 282 282 282 282 282 282 282 282 282 282 281 281 281 281 281 282 282 282 282 282 282 282 283 283 283 283 282 283 283 282 282 282 281 281 281 281 281 281 281 281 281 281 282 282 282 283 284 284 284 284 285 285 285 286 286 286 286 286 286 287 286 287 286 286 286 285 285 286
286 285 281 283 284 277 275 272 275 273 273 279 280 282 282 276 276 279 280 282 281 284 282 282 282 282 282 282 282 282 282 282 282 281 282 282 282 281 281 281 280 280 280 281 281 281 281 281 282 281 281 281 282 282 282 282 282 282 282 281 281 281 281 281 280 280 280 280 280 280 280 281 281 282 282 282 282 283 283 283 284 284 284 284 284 285 285 286 286 286 286 285 285 284 284 285 283
284 282 284 279 272 273 272 270 273 272 275 277 277 280 279 281 282 281 281 281 281 281 284 283 283 282 282 282 282 282 281 281 281 281 281 281 281 281 280 280 280 279 280 280 280 280 280 280 281 281 280 281 281 281 281 281 281 281 281 281 281 281 281 280 280 280 280 279 279 280 280 280 280 280 281 281 281 281 282 282 282 282 282 283 283 284 284 284 284 284 285 284 284 284 283 282 283
283 284 280 275 272 271 267 267 266 269 274 277 278 280 279 278 281 280 279 280 281 281 282 284 284 283 282 282 282 282 281 281 281 281 280 281 281 281 281 280 279 279 279 279 279 280 280 280 280 280 280 280 280 281 281 280 280 280 280 280 280 280 280 280 280 280 280 280 280 279 279 279 279 279 280 280 280 281 281 281 281 281 281 282 282 282 283 283 283 283 283 283 283 283 283 282 282
284 283 285 282 275 270 269 268 273 275 276 276 277 276 272 276 280 277 279 280 280 280 282 284 283 283 282 281 281 281 280 280 280 280 281 281 281 281 280 280 279 279 279 279 278 279 279 280 280 280 280 280 280 280 280 280 280 280 280 280 280 280 280 280 280 281 279 279 279 279 279 279 279 279 279 280 280 280 280 280 280 280 280 280 281 281 282 282 282 282 282 282 282 284 283 282 282
282 281 282 279 281 280 277 275 270 270 270 272 274 276 276 280 279 281 279 279 280 280 281 282 281 281 281 280 281 281 281 281 281 281 281 281 281 280 280 280 279 279 279 278 279 279 280 279 279 279 280 279 280 280 279 279 279 280 279 279 279 280 280 279 280 280 279 279 279 279 278 278 279 278 279 279 279 279 279 279 279 279 279 280 280 280 280 281 281 281 281 281 281 283 282 282 282
282 283 280 282 283 285 277 276 276 274 271 275 270 277 281 280 279 277 279 279 278 279 279 280 280 280 280 281 281 281 281 281 281 281 281 281 280 280 280 280 279 279 279 279 279 279 279 280 280 280 279 279 279 279 279 278 279 279 278 278 278 278 278 278 278 278 278 278 278 278 278 278 277 278 279 278 278 278 278 279 278 279 279 279 279 279 279 279 280 280 280 280 280 281 281 281 281
283 279 283 285 285 283 282 275 271 269 272 274 274 277 279 279 278 277 278 278 278 278 278 279 280 279 280 281 281 281 281 281 281 281 280 281 281 282 281 280 280 280 279 279 280 280 279 279 279 279 279 280 279 279 279 278 279 279 279 280 279 279 278 278 278 277 278 278 278 278 277 279 278 278 278 279 277 277 277 278 277 277 278 278 278 278 278 279 279 279 279 279 280 280 280 281 281
283 282 284 286 279 280 282 278 275 273 272 271 274 278 278 279 281 276 277 277 278 278 278 278 279 279 280 280 280 280 280 280 280 281 281 282 282 282 281 281 280 280 281 280 281 281 281 280 280 280 280 280 280 280 279 278 278 279 279 278 278 278 278 278 278 277 277 278 277 278 277 277 278 278 278 277 277 277 277 277 276 276 276 276 276 277 277 278 278 278 278 278 279 279 279 279 280
287 288 287 286 283 281 279 283 278 278 276 277 274 279 278 281 280 280 282 280 280 278 278 278 280 280 280 281 281 281 281 281 281 281 281 281 282 282 282 281 281 282 282 282 282 281 281 281 281 280 280 279 279 279 280 279 279 279 279 278 277 277 277 276 276 276 276 276 276 277 277 277 278 278 277 277 276 276 277 277 277 277 276 276 276 276 277 277 277 277 277 277 278 278 278 278 278
285 286 283 285 284 284 282 281 279 278 273 275 277 275 278 279 280 282 284 283 281 280 280 280 280 281 281 281 281 281 281 281 281 281 282 282 282 283 283 283 283 282 282 281 280 280 280 280 279 279 278 278 277 277 277 277 276 276 276 276 276 276 276 276 275 276 276 276 276 277 276 276 276 276 276 276 276 276 276 276 276 276 276 276 276 276 277 276 276 276 276 276 276 277 277 277 277
288 287 285 287 283 281 279 279 282 277 279 275 277 277 282 283 282 282 281 281 281 282 281 281 281 281 281 281 281 281 281 281 281 281 281 281 281 281 281 281 281 280 279 279 279 279 279 278 278 277 277 277 276 277 276 277 276 275 275 275 275 276 275 275 275 275 275 275 275 276 276 276 275 276 275 275 275 275 275 275 275 275 275 275 276 276 276 276 276 276 276 277 277 276 276 276 276
Wind_Speed
5 5 4 1 2 2 0 5 1 2 4 1 1 1 1 0 1 1 1 3 1 2 2 1 2 2 0 1 1 2 3 3 5 3 0 2 1 3 6 4 2 5 10 9 9 9 10 10 13 12 13 12 13 12 12 12 13 13 13 13 12 12 12 11 10 10 9 9 8 8 8 9 9 9 8 8 7 6 5 5 5 4 4 5 7 9 10 10 11 11 10 10 10 10 9 9 9
3 4 2 0 1 2 1 2 3 3 6 3 1 1 2 2 1 1 1 3 1 0 3 1 1 2 4 5 1 1 1 5 6 1 3 3 4 1 6 5 4 10 7 8 9 9 9 9 13 13 13 13 12 11 12 12 14 14 13 13 12 12 12 12 11 11 11 11 10 9 9 9 9 8 8 8 7 6 5 5 3 4 4 6 7 8 10 10 11 10 9 9 10 10 9 9 9
3 5 3 4 2 3 2 4 0 2 5 1 3 4 2 0 1 3 6 3 3 3 4 0 1 1 1 2 2 1 1 0 1 2 2 3 1 4 7 5 4 6 9 8 9 9 9 10 13 14 14 14 13 11 12 13 14 12 13 12 12 11 11 11 11 11 11 11 11 10 10 9 9 8 7 7 6 6 6 5 4 3 5 7 6 8 8 10 9 8 8 8 9 10 10 10 10
1 2 1 3 2 4 1 3 4 6 4 4 2 3 1 1 4 5 4 7 7 2 1 0 0 1 1 2 1 0 3 2 3 3 1 2 7 2 8 6 4 4 4 7 8 9 9 11 14 14 14 14 14 13 13 12 12 12 11 12 11 10 10 10 10 10 11 11 11 11 10 9 9 8 8 7 6 5 5 5 5 5 6 7 6 7 8 9 8 8 7 6 7 8 9 9 9
2 2 3 3 2 1 2 1 5 3 2 5 2 3 3 4 2 2 2 3 4 1 0 1 1 1 1 0 1 0 0 3 3 4 1 3 1 2 7 4 4 6 6 6 8 8 8 13 14 14 15 15 15 14 14 13 14 14 12 11 11 11 10 10 10 10 10 11 11 11 11 10 10 10 9 8 7 6 6 6 6 6 7 7 8 8 8 7 7 6 5 6 6 7 8 8 8
3 2 3 1 0 2 5 3 3 0 3 5 0 1 3 5 3 2 2 4 2 1 1 1 0 0 1 0 3 0 3 1 0 1 2 2 1 4 7 5 5 6 5 5 7 7 7 14 15 14 14 15 16 15 14 14 16 15 15 14 13 12 11 10 11 11 11 10 10 10 10 10 10 9 9 8 7 6 6 6 7 7 8 8 8 7 6 5 6 5 3 4 6 7 7 7 7
2 4 4 4 2 4 3 4 2 3 1 5 1 1 4 2 6 0 1 1 1 1 0 0 0 0 1 2 2 3 3 0 1 0 1 4 2 5 6 6 6 6 6 6 6 7 7 13 16 16 14 15 15 15 15 15 17 16 15 16 15 15 13 12 12 12 12 11 11 10 10 10 9 9 9 8 7 7 6 7 7 8 8 8 7 6 4 4 3 2 3 3 6 7 8 8 7
1 0 2 2 1 4 3 1 1 3 1 5 1 2 3 3 2 0 0 1 2 1 1 1 1 2 1 4 0 2 2 2 3 5 6 2 4 4 5 6 6 5 6 5 5 5 8 13 15 15 15 15 15 15 15 16 18 16 17 16 15 15 15 15 14 14 13 12 11 11 10 10 10 9 9 9 8 7 7 6 8 9 9 7 4 3 3 2 2 2 3 5 7 7 7 7 7
4 4 0 3 3 3 3 1 2 3 6 1 4 6 5 3 2 1 1 1 1 0 2 1 1 2 2 5 2 3 4 2 3 2 1 1 4 4 4 5 6 5 5 4 4 4 5 11 14 16 14 15 16 15 16 16 17 17 17 16 15 15 16 15 15 14 14 13 12 12 11 11 10 10 9 10 9 8 8 8 9 9 8 5 5 4 3 1 5 3 5 6 7 7 7 6 6
1 2 1 2 3 3 2 1 2 1 1 1 2 1 1 1 1 0 3 1 0 2 1 1 1 0 1 4 5 2 1 5 5 1 1 1 2 2 3 3 3 6 5 5 4 4 5 10 13 14 14 15 16 15 16 16 17 15 16 16 16 16 14 15 15 14 12 12 12 12 12 11 10 9 9 11 10 9 9 9 10 9 7 5 5 6 6 4 7 6 6 5 8 7 6 5 5
1 5 3 2 5 1 2 1 3 4 1 4 6 7 6 1 1 1 0 0 1 0 4 3 1 0 1 3 4 2 4 4 1 1 1 0 1 2 2 1 1 4 7 6 5 4 4 6 12 13 13 14 15 15 15 15 16 14 15 15 15 14 13 13 14 14 13 13 12 11 11 10 11 11 12 11 11 11 11 10 9 9 8 5 4 5 3 3 3 5 5 8 8 6 5 4 4
1 2 3 3 1 3 2 1 3 7 7 2 0 2 0 1 1 1 0 1 1 2 1 2 0 3 1 3 3 1 6 3 3 2 2 2 1 0 1 1 1 3 4 6 5 4 4 4 7 9 11 12 13 13 13 14 14 14 14 14 13 13 14 14 13 12 12 11 10 10 10 9 11 12 12 12 11 10 11 11 10 9 8 7 6 4 2 1 5 4 8 10 9 5 4 3 3
3 1 5 5 1 0 1 0 2 3 3 2 1 0 0 0 0 1 1 0 0 2 3 5 1 1 2 1 4 7 3 3 4 3 2 1 0 0 0 1 0 3 4 4 5 6 5 5 6 7 7 10 10 11 12 12 13 13 13 13 13 12 13 12 12 11 10 10 9 9 8 7 9 10 12 12 13 10 11 10 9 9 8 8 7 4 4 6 3 12 11 9 8 6 3 2 2
2 3 2 0 1 1 2 0 1 1 1 1 2 3 2 0 1 2 4 1 2 0 1 3 1 2 1 2 4 4 3 4 4 3 2 1 2 2 2 1 2 2 3 5 6 5 5 5 6 7 7 7 6 8 10 11 12 12 13 12 12 12 12 11 11 10 9 9 8 8 5 7 8 8 10 11 12 10 9 9 9 8 8 7 6 4 4 4 11 9 10 8 7 6 3 2 2
0 2 5 3 1 1 1 1 0 3 1 0 0 3 5 1 1 2 1 0 3 3 2 1 1 2 2 0 7 1 1 4 2 3 2 3 4 3 3 2 2 1 2 4 4 4 6 5 6 7 7 7 7 6 5 8 11 12 12 11 11 11 11 10 10 9 7 7 6 5 4 6 8 8 8 8 9 9 8 8 8 7 7 6 5 5 6 5 9 10 8 7 6 5 3 2 2
4 5 3 1 0 2 1 0 1 3 1 0 3 2 1 2 0 1 1 2 2 1 0 1 0 2 1 2 5 3 5 4 1 1 3 2 3 2 3 2 1 0 1 3 4 4 4 5 5 6 7 8 7 6 6 6 8 11 10 11 10 10 10 10 10 9 8 7 6 5 4 4 6 6 9 6 8 8 8 6 7 6 6 5 4 5 5 8 9 9 8 7 6 4 3 2 2
2 3 1 3 0 1 1 0 3 0 4 3 6 2 1 2 2 2 0 0 3 2 1 1 2 1 2 4 2 3 4 1 1 3 2 1 2 2 3 2 2 3 1 3 4 4 4 5 6 5 6 7 8 7 6 6 7 9 8 10 11 10 10 10 9 9 8 7 6 5 4 3 3 3 5 5 7 6 7 7 7 7 4 1 2 4 5 7 9 8 7 7 6 4 3 3 3
2 1 3 0 1 2 4 4 6 1 0 3 4 0 1 3 3 2 2 3 2 3 3 4 2 4 4 3 0 3 2 0 0 2 1 0 3 2 4 5 6 5 5 5 3 2 3 5 6 6 6 7 7 6 5 5 5 8 6 6 6 7 8 8 7 5 6 4 5 4 3 3 3 4 4 4 5 6 6 8 7 8 5 3 5 5 6 7 9 9 8 7 6 6 5 1 3
3 2 1 3 5 2 6 3 4 1 3 3 1 2 1 4 0 2 1 4 5 9 6 2 1 5 7 6 4 6 5 7 9 8 7 6 5 5 5 5 5 5 5 3 3 3 4 5 3 6 7 6 7 6 5 4 5 5 6 6 6 7 6 6 4 5 4 4 4 3 3 3 4 4 5 4 4 7 7 8 8 7 7 5 6 7 7 7 9 8 8 7 7 7 2 1 1
1 2 1 3 7 3 5 3 3 5 1 2 3 2 2 3 0 1 1 4 5 6 10 4 0 5 4 4 8 7 8 6 6 4 4 4 4 4 5 5 6 5 5 6 5 2 1 3 3 4 4 5 7 6 5 4 4 4 5 5 5 5 5 5 5 4 4 5 4 4 3 3 4 4 5 9 7 5 6 7 8 8 11 9 8 6 7 6 9 9 7 8 6 3 1 1 1
1 1 3 2 2 0 2 6 5 5 2 1 1 1 2 3 4 0 1 6 8 6 5 5 6 7 7 5 5 6 8 8 8 8 7 7 6 4 4 4 5 7 7 7 4 5 4 4 3 3 3 4 6 6 6 5 5 4 4 5 5 6 5 5 5 5 5 5 5 5 4 3 3 3 3 4 5 5 5 5 4 2 0 4 5 3 3 3 5 3 4 5 3 3 0 1 1
3 4 2 2 2 1 6 5 5 2 4 0 1 5 4 0 0 0 0 3 8 5 2 1 4 6 4 6 5 6 8 9 9 10 9 7 7 8 8 7 6 4 6 5 7 6 5 5 6 6 5 5 6 6 6 5 5 5 5 5 4 3 6 5 3 7 6 5 6 5 4 3 4 4 3 3 4 4 5 5 5 4 2 3 3 4 2 2 3 4 5 4 3 3 1 1 1
2 3 3 4 2 2 2 0 5 1 0 1 4 3 3 1 3 3 2 6 9 2 5 5 6 6 6 8 5 7 9 9 9 8 9 9 9 9 9 6 7 9 7 6 6 6 6 5 5 5 7 7 7 5 4 5 5 5 4 4 5 4 3 6 7 3 3 8 6 4 5 4 4 4 3 4 5 4 4 5 4 4 5 4 3 4 3 1 3 4 4 4 3 3 2 0 1
1 4 1 4 3 5 5 5 4 2 2 4 2 2 3 4 7 0 3 11 6 5 5 9 8 9 8 10 7 7 6 7 6 6 5 5 5 6 7 8 8 5 4 6 6 7 7 7 6 5 5 6 5 4 4 5 4 4 4 4 4 4 4 2 2 7 5 2 4 8 7 5 4 5 4 4 5 3 4 5 4 4 4 4 3 3 4 2 3 3 4 3 3 2 3 1 1
2 3 1 3 0 4 5 4 6 5 5 5 1 3 8 3 3 2 8 11 6 5 9 9 9 10 9 10 9 7 8 8 9 6 5 5 5 4 5 6 7 7 9 10 8 8 8 7 5 4 4 4 4 5 5 5 4 4 4 4 5 4 4 4 3 1 1 6 5 4 4 4 3 3 5 5 2 6 3 3 4 4 4 4 4 4 5 4 4 4 4 4 3 3 1 1 1
3 5 0 3 5 5 6 6 7 5 4 2 2 9 5 4 2 3 13 4 7 8 9 7 8 10 9 8 8 8 9 9 8 9 8 6 7 11 12 10 9 10 9 8 8 8 8 8 5 2 3 3 4 5 5 5 5 5 5 4 4 3 4 4 3 2 2 2 1 4 5 5 5 4 4 4 5 4 4 3 4 4 4 4 3 5 5 5 5 4 3 4 3 3 2 2 0
3 2 3 4 7 4 6 4 5 0 3 4 3 8 1 2 2 4 4 2 7 12 9 6 9 10 9 8 7 8 9 10 9 6 8 8 10 10 10 10 10 9 9 10 9 9 9 8 7 4 0 2 3 3 3 4 5 5 4 3 3 4 3 4 4 5 4 3 3 3 4 6 4 4 5 6 4 4 4 4 5 4 4 5 5 5 4 5 5 5 5 5 5 4 4 1 1
1 2 2 4 6 5 9 5 9 1 3 3 6 4 1 1 0 7 4 4 7 11 8 9 9 8 8 8 8 7 8 7 7 8 12 12 10 9 9 9 10 10 9 11 9 8 9 10 8 7 2 3 3 2 2 2 2 2 3 4 4 2 3 3 3 4 3 4 3 4 4 4 5 4 5 5 6 6 5 6 5 5 6 5 5 5 5 5 5 3 3 3 3 3 2 1 0
1 0 5 6 8 7 4 3 1 1 2 2 5 1 1 1 4 10 6 4 9 11 9 6 8 7 7 6 7 8 8 7 7 9 9 7 6 7 8 8 8 8 6 7 9 8 11 9 8 8 6 4 4 4 3 2 3 3 4 4 4 4 4 3 4 4 5 4 4 4 4 4 5 6 6 6 3 2 3 4 3 5 5 6 5 4 5 4 4 4 3 3 3 3 2 1 1
1 2 0 6 5 7 6 1 2 0 2 2 1 3 8 6 10 8 4 5 9 11 7 5 5 6 6 6 6 7 8 9 11 9 8 8 8 8 8 9 8 7 7 7 9 12 9 7 6 6 8 8 7 5 4 3 2 2 3 3 3 2 1 2 2 2 3 4 4 4 4 5 5 5 6 5 6 6 6 5 6 6 5 4 4 5 5 5 4 4 4 4 3 4 4 4 3
2 1 2 2 4 4 2 1 0 4 1 1 0 3 7 8 9 4 3 4 8 6 4 5 5 5 5 5 6 7 8 7 8 9 10 9 9 7 8 9 10 9 8 9 11 9 9 9 8 7 8 9 9 9 8 7 6 6 6 5 5 5 5 4 4 4 4 5 4 2 2 4 5 5 5 6 7 7 6 6 6 7 4 4 5 5 5 4 4 5 5 5 2 2 2 2 3
1 1 4 3 2 6 11 4 4 2 1 1 3 1 8 7 11 4 1 6 11 8 4 4 5 5 5 5 6 6 6 6 8 9 10 9 9 9 9 10 10 10 10 9 8 8 10 10 10 9 10 10 9 9 8 8 8 8 7 7 7 7 7 7 7 6 6 5 4 3 4 4 4 3 2 2 4 4 5 6 7 4 5 5 5 4 4 5 5 4 3 5 4 3 2 3 1
4 3 4 2 2 5 9 1 1 3 1 1 3 6 3 5 4 5 3 6 8 9 5 5 6 6 5 6 5 5 6 8 9 10 10 9 8 8 8 9 10 9 8 10 10 9 11 11 11 11 11 9 8 9 10 9 10 10 10 9 9 9 9 8 8 8 9 8 8 8 8 7 6 4 3 4 4 2 2 3 1 4 4 5 5 5 4 4 5 5 3 3 4 5 5 4 3
4 1 4 3 2 2 3 7 1 2 2 1 1 1 5 8 11 2 7 5 8 8 6 5 5 5 5 5 5 6 6 7 9 9 10 9 8 9 8 8 8 8 8 9 9 9 8 9 9 10 9 9 8 8 8 9 9 10 10 9 10 11 10 9 8 10 10 9 9 9 10 9 8 8 7 5 4 4 4 4 5 3 2 1 4 4 3 4 5 6 6 4 5 4 5 4 5
3 2 1 5 1 4 8 1 2 5 2 0 1 3 8 12 12 5 5 6 10 7 5 5 5 5 5 5 5 5 6 8 8 7 9 9 10 8 8 8 8 8 8 9 9 9 9 9 9 11 11 10 9 7 6 7 8 8 9 10 11 10 10 9 9 10 9 9 9 9 10 9 9 9 8 7 6 6 6 6 6 5 4 4 3 1 2 1 1 1 4 4 2 1 3 3 4
6 5 3 2 3 5 5 5 4 1 5 4 4 7 8 9 12 4 7 5 10 7 6 6 5 4 5 5 5 5 5 7 5 7 7 8 7 8 8 8 7 7 8 9 11 11 11 11 8 11 11 9 7 8 7 7 8 9 9 9 11 9 9 10 10 10 10 10 10 10 9 9 9 9 9 8 8 7 6 6 5 4 5 5 6 6 6 5 4 3 2 1 2 0 1 1 2
2 2 2 4 6 6 4 4 6 0 1 6 8 5 5 10 7 4 3 5 8 6 6 5 4 4 4 4 5 4 6 4 4 5 7 7 9 8 8 7 7 7 11 11 12 12 12 10 11 12 9 9 9 9 8 7 7 6 9 10 8 6 7 8 10 9 10 9 11 11 11 10 10 10 9 9 8 8 7 5 5 5 4 5 5 3 3 3 4 3 3 2 1 2 1 2 2
1 0 1 6 3 9 4 4 0 1 3 3 0 0 6 10 4 5 3 6 5 4 6 5 5 4 3 4 5 4 2 2 5 8 9 8 9 10 9 8 9 13 11 11 11 10 9 11 12 9 9 10 10 8 6 8 6 5 7 6 8 7 9 10 9 9 9 9 12 12 11 10 11 11 10 10 9 8 7 7 6 5 5 4 4 4 4 3 4 3 2 2 2 2 2 1 1
1 3 2 2 8 3 10 6 3 2 4 8 0 3 6 8 2 5 5 6 3 3 3 4 5 4 3 4 4 4 4 4 5 6 7 8 9 9 8 8 8 7 8 9 8 10 11 11 9 9 9 9 9 8 8 7 5 5 6 4 5 7 6 6 8 7 9 10 11 11 11 11 11 10 10 9 9 9 8 8 7 6 6 4 5 5 3 4 3 3 4 2 2 2 0 0 2
3 2 2 8 3 2 6 4 2 1 2 3 2 3 8 2 5 6 4 4 4 5 7 6 4 4 4 3 3 4 4 4 6 6 7 7 6 7 7 8 7 7 8 9 10 9 8 9 9 10 10 9 9 9 7 5 5 5 6 7 9 9 6 5 9 11 11 13 13 11 11 10 10 10 10 10 8 9 9 8 7 7 7 5 5 5 4 4 3 2 2 2 2 2 1 1 3
2 5 5 4 3 6 9 6 3 3 1 1 1 4 5 8 6 1 4 3 7 5 7 6 5 4 3 3 5 4 3 3 4 6 6 6 7 7 7 6 6 9 9 10 9 8 7 9 9 9 10 9 9 10 10 6 6 6 4 5 5 7 9 10 11 11 10 9 10 12 10 10 10 10 10 10 9 8 8 8 8 7 8 7 7 7 6 6 4 2 1 0 1 2 3 2 0
3 6 11 8 7 7 5 3 3 6 3 3 1 4 4 3 2 4 3 2 3 1 5 4 3 4 4 4 4 3 3 3 3 4 4 4 5 5 7 9 10 9 10 8 7 7 8 9 10 10 10 10 10 10 9 9 10 9 10 10 10 9 10 11 11 9 9 10 8 5 10 10 10 10 10 10 10 9 9 8 7 8 9 9 8 7 7 8 7 6 4 2 2 1 2 3 3
1 6 8 10 7 5 3 1 2 1 1 1 2 0 7 4 2 4 4 3 4 2 3 3 3 3 3 3 2 2 2 3 4 4 4 5 6 7 8 9 8 8 7 5 6 7 8 8 8 10 9 9 9 9 10 9 10 9 9 8 7 8 9 6 4 5 6 6 8 10 8 10 10 10 10 10 10 10 9 9 8 8 8 8 7 8 9 8 6 6 6 6 4 3 1 2 4
4 2 5 4 4 4 4 4 6 4 1 4 1 2 5 4 2 2 6 6 3 3 2 2 3 3 2 2 1 1 2 2 2 3 4 4 4 5 6 5 5 5 4 4 6 6 9 8 9 10 9 10 9 8 10 9 9 8 10 10 9 9 8 7 6 6 6 7 11 10 9 9 10 10 10 10 10 10 9 9 9 9 8 8 7 7 7 6 7 7 6 5 5 5 3 2 4
3 1 6 4 6 4 4 4 3 0 1 6 3 1 1 5 4 1 4 4 3 5 4 4 3 3 3 2 1 1 1 1 2 3 3 3 4 4 4 4 3 4 4 5 6 6 6 7 9 10 12 10 10 11 11 11 10 8 8 7 10 7 7 6 5 7 8 8 11 9 10 9 9 10 10 10 10 10 9 8 9 9 9 8 7 7 7 6 7 7 8 8 7 6 5 4 3
2 5 7 6 7 6 4 4 3 1 1 5 6 3 2 10 3 3 3 2 8 6 7 6 5 5 4 3 1 1 1 1 1 2 2 3 3 3 3 2 4 4 4 5 5 5 6 6 10 12 12 10 9 10 10 11 10 8 9 9 9 7 6 6 7 8 7 6 9 8 7 8 7 8 9 10 11 10 10 10 9 9 8 7 7 7 7 8 7 6 5 5 5 6 5 5 5
5 4 6 5 7 3 3 6 2 2 5 4 9 8 6 8 3 8 9 7 3 6 2 3 3 3 3 3 3 3 3 2 1 1 1 2 1 2 3 4 4 4 4 5 6 6 5 7 9 13 9 8 9 9 9 10 9 8 8 7 7 6 5 5 8 8 7 8 8 7 7 6 6 7 7 8 9 10 9 9 9 9 8 8 8 8 7 6 6 5 5 5 6 6 5 5 5
4 2 2 2 2 5 3 4 4 1 6 2 4 8 6 9 4 4 4 0 2 8 11 12 10 8 7 5 4 4 3 3 2 2 2 2 3 4 3 5 4 4 4 6 5 5 7 7 9 12 9 8 8 8 9 9 8 8 7 6 7 5 5 6 8 8 6 7 6 7 5 6 7 6 7 7 9 9 8 8 7 7 8 8 8 6 6 6 6 5 6 6 6 4 4 5 4
3 5 5 4 3 4 3 2 2 5 7 1 0 2 3 13 5 1 3 3 2 4 4 13 14 11 9 7 6 5 4 3 3 3 3 2 3 2 3 3 4 4 4 4 4 4 5 6 7 12 10 8 8 8 9 8 9 8 7 6 6 5 6 7 6 7 5 6 6 7 8 8 7 9 9 9 9 9 7 8 8 8 8 7 6 6 6 6 6 6 6 5 5 5 4 4 5
4 6 5 5 0 0 3 4 1 6 5 3 0 0 5 2 6 2 4 4 5 6 6 7 13 14 12 9 7 6 5 4 4 4 3 3 3 2 2 3 3 3 4 4 4 4 4 6 6 11 8 6 6 8 7 8 8 7 6 6 6 5 6 6 6 6 5 5 5 6 6 6 7 6 6 7 6 6 6 5 6 6 6 6 6 6 6 5 6 6 5 6 5 4 3 4 3
7 1 8 8 7 5 4 3 5 7 6 2 3 3 7 2 4 0 3 4 3 3 4 8 7 8 8 6 6 5 5 5 4 4 4 4 3 4 4 4 3 4 4 4 4 4 4 6 7 9 9 6 7 6 6 7 6 6 5 4 5 4 5 5 5 4 4 5 5 6 6 6 6 5 6 4 5 6 6 6 6 6 7 7 6 7 7 6 6 5 5 5 4 5 5 4 4
1 2 4 5 7 5 4 5 3 1 2 2 2 5 4 5 1 0 1 2 4 3 5 9 9 7 6 6 7 7 6 5 4 4 4 4 4 4 3 4 4 4 4 4 4 4 5 5 6 6 7 5 5 5 5 5 5 4 4 5 4 3 3 3 3 3 3 4 4 5 5 5 5 4 5 6 6 6 7 7 6 7 6 7 7 6 7 7 7 7 6 5 6 3 5 6 4
3 4 5 6 1 4 1 2 1 2 3 9 2 6 5 2 1 4 1 4 2 2 4 6 8 7 6 8 8 7 6 6 6 6 6 5 4 4 4 4 4 4 4 4 4 4 5 5 6 6 5 4 4 4 4 4 4 5 4 4 4 4 4 4 4 4 4 4 4 4 5 3 3 3 4 3 5 5 5 5 6 7 7 7 6 6 6 6 6 7 7 8 8 6 5 5 5
7 2 8 1 2 3 4 4 1 1 6 7 3 8 4 1 10 1 1 1 1 3 5 5 6 7 9 9 7 7 8 8 7 5 4 5 5 5 5 4 4 4 4 4 4 3 4 4 5 5 5 5 3 4 4 4 4 4 4 4 4 3 4 4 4 4 4 5 5 5 3 4 4 2 2 3 4 4 4 4 4 5 5 5 6 6 6 7 7 7 6 6 6 6 7 7 6
4 2 2 4 3 1 1 4 5 4 5 5 4 5 5 9 8 2 4 7 9 8 6 7 10 10 9 7 8 8 6 5 6 7 6 7 7 6 6 5 4 4 3 3 3 3 3 3 3 4 4 3 3 2 2 2 2 3 3 4 4 4 4 4 4 5 5 5 5 5 5 4 4 6 7 8 8 7 6 6 4 5 4 4 4 4 4 5 5 7 7 8 7 7 7 8 7
1 2 1 1 1 2 5 6 3 3 8 5 4 5 10 5 4 12 9 13 12 11 9 13 12 12 12 11 11 10 10 9 8 7 7 7 6 6 6 6 5 4 3 2 2 2 2 1 2 2 2 2 2 3 3 4 3 3 2 2 2 2 3 4 4 4 4 3 2 3 4 5 5 5 5 5 6 6 7 8 7 7 7 7 6 4 4 5 4 4 5 6 7 7 8 8 9
0 1 2 1 1 2 2 2 4 5 4 5 8 7 6 4 4 9 10 10 15 17 17 13 13 13 12 12 13 11 10 8 8 8 8 8 7 6 6 5 4 3 3 3 3 3 3 2 2 2 4 2 3 2 3 3 3 3 3 3 2 2 1 1 2 1 3 2 3 3 3 3 4 5 4 5 5 5 6 6 7 7 8 9 9 10 8 7 7 7 6 5 5 5 6 7 7
6 10 10 11 6 4 5 10 2 2 4 5 5 13 4 2 1 1 1 3 11 14 13 12 11 12 13 12 10 8 7 8 9 8 7 7 6 5 4 4 4 4 4 4 4 3 3 4 4 3 2 3 4 3 4 3 2 3 3 3 2 1 1 1 2 2 4 3 4 4 3 4 4 4 3 4 4 4 4 4 5 6 6 6 6 7 8 8 9 11 11 7 8 8 8 8 6
Wind_Direction
327 315 301 306 64 104 67 359 162 334 63 352 1 23 212 135 218 13 284 330 28 258 205 89 122 92 122 196 187 198 204 114 211 110 3 236 249 239 218 216 220 141 152 160 170 174 182 191 181 189 181 179 179 178 172 169 167 165 165 162 160 159 157 154 152 148 148 147 151 150 149 146 144 141 139 136 130 120 103 85 76 80 90 108 113 118 108 102 91 83 80 74 68 62 54 49 45
296 312 319 237 139 73 235 129 95 358 42 65 227 93 255 293 44 218 216 198 211 263 323 137 56 90 51 86 157 147 284 227 169 193 271 249 304 267 209 205 179 158 157 160 168 175 178 186 185 186 179 180 181 176 171 171 171 169 168 167 164 166 165 160 159 158 157 155 157 161 156 156 152 149 146 144 143 133 121 106 97 102 112 114 116 113 107 100 89 84 77 71 65 58 50 43 39
325 354 5 36 47 66 101 38 182 31 85 76 276 207 321 110 226 247 223 216 249 264 295 277 148 94 39 23 15 110 271 294 293 281 236 333 37 258 187 191 193 163 158 162 166 173 178 184 185 185 179 180 178 174 171 175 172 172 170 171 171 172 169 166 168 165 164 160 160 165 163 163 161 155 155 152 150 144 132 122 121 115 125 113 122 110 98 92 85 79 79 70 62 56 47 40 32
343 47 97 46 262 33 59 28 84 121 113 200 314 281 179 181 243 218 243 249 271 320 318 337 84 231 109 11 227 71 291 344 193 162 297 238 201 239 162 174 181 143 149 163 170 171 177 185 185 185 182 180 178 172 172 176 173 173 170 173 174 178 173 174 171 173 169 166 165 163 166 165 164 162 165 163 156 152 141 133 130 141 132 129 123 113 105 93 80 74 67 67 61 56 49 38 30
37 356 73 94 103 356 101 102 135 108 123 207 130 275 259 216 238 258 276 280 278 261 358 194 92 318 174 151 164 88 275 255 288 186 245 259 256 212 148 155 146 146 166 170 170 173 178 182 187 186 183 180 178 172 175 177 175 174 174 177 179 181 176 178 176 182 174 172 170 169 168 170 171 172 172 168 162 157 155 150 151 139 136 135 128 118 106 98 100 92 84 71 61 58 51 41 31
57 44 10 85 11 157 50 64 65 151 211 152 140 240 229 221 197 234 269 293 275 260 202 63 131 327 349 266 182 150 201 50 202 248 182 263 210 167 146 143 147 158 169 170 175 175 179 184 186 187 185 182 179 174 177 180 182 177 177 178 181 182 181 186 182 188 180 180 177 176 175 176 177 178 175 172 167 166 166 163 152 141 144 147 143 134 127 104 88 83 68 70 59 51 43 39 35
343 40 355 23 31 48 167 121 184 197 278 161 206 251 220 229 222 116 308 351 258 37 79 7 22 49 51 318 329 241 185 135 117 292 169 321 109 128 141 145 148 168 169 175 176 180 182 185 188 189 187 184 182 178 180 181 185 180 180 183 183 182 183 187 185 194 188 186 184 184 183 186 186 184 179 172 171 167 171 168 153 147 149 155 142 148 135 119 109 87 67 72 75 57 43 36 33
76 100 317 104 257 47 35 166 229 173 349 180 246 237 271 250 216 104 289 91 320 54 346 254 6 113 241 52 340 275 335 191 253 304 282 278 126 120 143 144 155 173 175 176 181 183 185 186 190 190 189 185 185 183 183 184 190 181 185 189 187 186 186 185 186 193 193 194 190 189 193 194 191 188 181 172 172 163 169 164 150 153 157 152 150 139 122 121 101 100 87 70 81 61 48 38 29
359 90 252 68 46 25 51 58 282 254 291 305 291 218 274 216 180 150 29 255 298 272 327 336 298 33 251 345 212 272 293 315 303 318 1 114 129 138 141 158 161 170 179 180 185 182 187 192 193 191 191 187 187 186 187 187 192 187 190 192 192 192 192 190 188 193 194 195 192 195 200 200 193 189 186 174 168 167 165 164 158 154 144 120 95 66 47 56 286 91 108 102 82 68 53 39 30
47 52 309 109 137 51 11 301 74 199 241 275 264 289 271 224 219 104 143 47 265 313 267 278 233 18 321 308 313 358 324 334 301 51 15 39 116 105 127 176 174 162 173 188 186 185 194 198 197 195 194 190 189 188 188 189 194 189 191 194 195 195 196 193 193 195 198 196 198 197 203 200 195 186 194 180 170 171 165 171 164 150 132 133 109 98 91 63 86 104 104 100 87 74 60 43 35
340 11 136 73 31 67 98 272 275 316 281 316 299 239 234 218 181 68 342 181 331 193 318 156 15 209 57 279 229 261 306 334 5 226 231 330 40 102 136 168 192 174 174 185 188 186 193 198 205 201 198 195 192 189 189 189 194 191 191 193 196 195 200 196 195 195 200 200 200 203 210 198 189 187 186 192 175 173 173 170 171 161 147 137 128 125 120 135 169 127 135 110 87 76 70 56 42
324 26 5 102 118 148 222 169 283 279 301 334 263 313 241 154 99 23 333 57 300 317 207 100 306 151 358 331 310 293 309 313 235 259 290 331 83 102 115 138 146 190 191 182 178 187 191 195 202 212 208 203 200 195 191 191 195 191 190 194 195 196 200 200 200 197 198 199 201 204 212 189 192 189 187 190 185 178 176 171 173 166 153 158 168 183 192 215 164 224 117 108 102 89 77 72 58
97 84 72 78 188 122 183 64 253 292 336 284 206 7 358 106 288 201 224 177 234 353 329 221 124 68 299 261 272 318 9 311 245 246 292 322 342 351 27 70 131 194 174 185 178 190 187 190 197 206 211 212 209 203 199 196 197 195 192 194 196 196 202 201 203 203 201 200 203 208 211 182 192 193 189 190 190 184 179 171 173 171 171 176 184 208 241 240 161 108 118 114 112 108 104 90 85
109 181 127 128 53 116 147 239 328 119 323 270 272 289 327 27 253 205 125 355 295 170 269 190 94 150 272 11 317 337 283 284 286 319 335 351 27 32 37 27 51 192 177 177 194 191 190 192 193 197 201 206 210 211 207 203 200 199 195 196 196 196 200 203 203 206 204 203 206 214 202 171 183 192 194 194 197 185 182 164 167 171 176 184 203 237 242 250 118 117 117 120 118 118 126 125 109
97 137 81 113 11 72 255 89 318 122 56 68 282 8 360 260 119 135 205 156 285 205 314 145 191 91 250 83 287 253 299 309 321 348 32 27 27 25 12 32 43 66 183 189 202 190 197 191 197 197 197 197 202 202 202 210 207 204 198 198 199 197 199 201 203 205 207 208 207 212 186 174 177 182 191 203 192 187 174 160 162 171 184 194 238 232 238 129 125 125 124 126 127 126 139 150 136
140 83 75 103 259 127 243 125 44 81 297 199 277 280 6 307 135 29 288 180 250 331 50 230 3 231 235 165 242 253 266 297 327 33 52 40 4 7 15 360 359 358 214 199 198 209 198 195 196 200 201 200 200 199 201 200 211 209 203 201 202 200 200 201 201 201 204 206 209 202 187 176 182 185 191 195 187 184 170 161 166 158 177 213 266 243 188 141 135 134 136 132 136 141 155 152 125
55 82 33 30 38 143 222 175 131 85 260 284 298 28 69 290 280 238 219 77 308 289 352 246 216 15 207 215 229 272 299 291 42 67 75 34 16 334 343 328 338 303 243 222 202 204 204 199 200 198 204 205 202 200 200 201 201 206 211 206 203 204 202 201 202 199 200 200 194 193 175 170 176 185 191 188 188 181 174 169 172 154 161 202 125 151 170 140 145 142 144 144 141 157 120 68 14
57 65 112 27 203 123 205 178 185 152 206 283 346 196 75 320 329 297 354 320 7 291 273 280 304 268 237 250 262 307 312 13 27 126 89 294 6 326 319 329 346 312 325 327 321 301 226 207 201 200 199 205 201 203 202 197 193 196 204 203 204 205 206 203 201 196 197 195 193 177 161 163 166 178 178 192 180 180 178 177 183 154 155 145 157 157 169 160 150 149 150 146 155 125 87 52 17
91 127 83 243 183 240 156 198 198 126 267 233 255 307 220 246 145 303 9 290 339 334 316 140 295 304 318 319 324 19 9 21 21 19 19 8 356 339 317 312 313 317 307 316 301 333 316 311 261 208 203 198 199 202 202 196 190 184 201 200 197 200 199 200 197 190 189 191 185 174 165 171 168 178 180 179 186 178 176 185 185 167 152 144 188 172 168 176 153 159 152 156 127 102 75 62 37
201 119 256 255 209 243 222 201 228 202 196 278 301 317 150 253 161 298 292 274 329 296 297 340 265 305 301 298 337 338 31 28 32 39 24 356 337 312 314 312 302 290 273 263 259 284 231 248 277 280 233 199 196 198 196 191 189 177 192 199 191 192 194 193 196 191 187 182 177 169 169 176 172 179 186 181 178 175 177 190 203 190 164 165 177 176 171 156 154 157 162 121 89 70 67 41 33
245 82 178 229 198 77 254 197 234 239 151 240 264 206 308 276 219 205 226 360 310 285 230 223 292 312 316 318 334 5 34 41 32 38 40 29 14 11 344 317 302 300 293 291 283 264 241 213 220 229 253 228 204 199 195 196 181 178 188 193 190 183 187 192 189 192 188 184 175 167 168 169 174 171 184 176 182 180 169 178 200 237 144 136 145 163 164 155 139 116 84 91 101 100 85 2 20
113 209 199 167 154 271 248 196 215 182 215 154 333 345 279 323 71 120 135 284 270 263 2 209 282 313 326 347 29 39 44 44 33 32 26 23 19 1 351 346 336 331 338 355 328 317 295 259 213 198 198 209 212 203 199 188 175 194 191 189 186 192 175 180 216 190 184 193 175 170 152 172 183 171 175 190 183 185 177 177 183 155 158 140 135 164 162 145 101 109 120 112 116 104 79 41 9
235 314 277 212 209 257 275 297 169 73 17 322 321 258 326 51 281 247 191 217 249 85 25 27 36 40 61 66 45 36 33 35 31 28 17 15 5 3 355 345 348 345 339 328 320 317 316 303 253 207 198 191 202 200 194 187 198 196 190 179 184 199 197 183 200 265 236 174 173 160 164 179 183 168 186 203 186 184 189 173 173 165 162 148 143 148 160 112 117 126 128 135 128 126 114 51 9
123 246 349 313 175 221 276 289 319 324 103 265 210 344 292 294 313 49 284 262 253 25 63 79 72 59 49 60 40 47 37 29 22 19 22 13 357 349 343 343 338 325 329 332 329 320 321 319 296 237 212 191 186 178 184 196 193 189 192 175 191 176 169 207 237 206 187 281 180 163 161 162 182 169 191 225 184 176 199 175 159 159 148 149 125 133 148 118 110 113 126 124 136 145 167 192 355
173 276 274 267 186 245 285 292 301 296 277 255 218 261 259 198 225 359 272 271 51 62 80 77 68 60 54 56 42 33 32 21 15 1 8 8 1 340 357 348 345 346 357 346 332 330 328 321 309 264 221 200 177 168 186 179 174 186 187 190 197 174 181 183 190 230 204 167 168 144 136 157 173 177 180 212 215 173 180 164 154 170 160 154 155 161 157 153 145 146 150 157 157 161 176 235 344
197 220 308 305 297 305 291 310 272 259 270 187 306 264 286 252 170 249 245 292 78 89 67 63 65 59 52 49 39 36 30 22 9 12 1 347 359 10 6 358 350 2 344 325 335 334 329 330 341 300 222 185 170 170 180 166 172 181 192 198 188 171 208 193 159 200 191 137 135 145 158 168 174 177 187 189 185 185 159 161 167 167 175 153 156 175 182 163 163 147 144 153 164 169 178 264 13
170 234 223 272 273 328 293 226 274 177 236 216 226 276 338 334 106 290 12 31 107 68 63 43 64 62 49 45 36 32 35 23 10 346 9 9 12 13 353 353 1 345 336 343 345 343 330 340 360 351 142 147 155 174 172 176 161 184 178 172 165 194 188 175 187 195 195 178 173 178 177 190 180 180 189 182 195 171 173 173 191 171 173 188 185 185 163 169 161 174 178 175 178 170 194 162 162
135 211 322 288 295 246 246 262 274 319 294 169 195 248 321 299 97 233 104 19 78 85 57 47 53 53 46 38 35 24 33 15 7 17 21 10 6 357 354 356 346 343 352 346 340 333 341 354 356 11 25 103 96 84 98 114 129 144 148 159 181 162 149 182 184 179 200 210 197 181 190 195 180 184 189 204 186 174 185 193 188 179 198 192 192 176 163 151 155 138 125 135 138 143 141 81 47
213 49 321 296 340 341 291 263 320 92 276 152 165 326 289 66 201 238 90 63 71 81 68 57 54 51 44 35 34 31 24 10 12 23 14 360 349 355 353 350 347 345 340 334 335 347 1 350 360 11 22 56 87 104 112 112 121 130 144 165 165 155 163 159 178 198 207 201 189 187 188 185 182 184 192 179 187 182 177 182 185 210 203 186 179 165 147 134 121 128 125 119 119 123 142 169 111
86 30 126 324 354 324 295 96 17 77 259 128 179 275 277 252 244 259 81 109 84 67 68 58 58 49 45 37 34 34 22 18 19 15 2 358 354 354 355 348 351 354 341 341 351 7 357 354 357 16 31 47 46 40 52 69 82 109 129 127 109 106 95 149 201 223 205 200 194 197 200 196 191 193 187 196 180 178 185 193 198 207 205 182 157 152 162 159 155 159 167 144 168 170 195 212 190
214 269 60 267 2 277 280 60 338 344 310 102 65 215 280 279 266 303 328 122 97 91 77 63 58 51 49 39 37 34 26 23 15 9 3 358 357 355 355 353 357 356 354 359 4 350 3 7 3 25 25 44 47 51 55 56 46 48 44 47 57 77 74 59 44 34 11 359 343 304 256 212 199 195 200 197 192 181 182 199 204 210 174 162 169 178 164 165 162 176 158 169 159 193 210 225 209
20 37 290 331 165 278 306 296 191 191 337 115 108 277 245 270 284 42 310 85 97 96 88 72 60 58 47 41 37 29 24 16 16 13 8 359 360 359 359 356 355 1 5 354 353 359 16 14 13 27 25 36 43 51 57 60 63 63 61 56 57 59 64 59 46 36 27 23 32 32 18 9 349 331 293 207 181 190 190 198 212 171 172 170 173 161 154 175 175 159 181 161 169 222 194 253 209
347 172 269 275 180 264 337 331 278 288 114 6 160 235 341 307 264 73 18 74 86 107 95 75 69 57 48 40 37 29 19 16 18 14 5 4 358 358 359 358 359 358 1 4 5 4 18 13 17 24 23 22 34 48 58 61 61 60 59 57 57 54 53 55 53 54 50 44 34 32 16 18 20 34 40 4 340 328 298 253 166 168 168 173 168 167 181 167 163 164 181 204 187 186 195 226 233
283 10 210 203 204 265 273 302 37 26 106 201 343 219 240 259 288 19 6 86 96 102 100 85 72 66 53 46 42 33 27 22 20 5 359 360 356 358 357 0 359 360 10 14 12 17 16 11 17 20 18 21 28 39 50 61 63 65 63 61 57 56 49 48 50 54 52 47 47 44 42 43 33 30 27 27 43 41 40 32 33 28 20 138 161 171 181 157 176 176 184 198 191 168 198 208 230
212 163 215 295 274 216 245 296 262 26 32 280 288 233 275 277 280 16 32 52 94 99 100 86 77 67 53 51 44 32 30 30 14 0 356 356 0 356 359 358 3 7 15 16 21 22 26 22 21 24 22 13 17 28 41 56 59 64 65 59 55 54 52 50 47 52 49 46 43 40 38 40 41 41 37 41 56 49 45 40 42 35 29 16 14 25 56 78 109 192 201 190 168 171 187 206 214
202 199 203 174 239 260 226 235 277 68 308 305 255 244 257 271 276 31 15 39 95 104 95 84 75 68 65 60 47 38 28 29 3 360 0 2 1 359 358 359 359 11 19 20 25 27 25 25 23 30 23 11 14 30 29 45 56 51 55 51 50 40 45 49 46 51 48 45 37 39 39 38 33 32 31 34 51 50 53 55 74 75 69 53 41 30 17 6 344 325 317 146 150 82 52 124 112
118 105 133 221 231 271 292 262 254 166 318 248 250 259 262 273 276 13 10 81 78 88 88 88 76 74 66 58 54 38 39 26 343 3 11 7 3 2 3 4 355 18 26 23 29 26 26 22 28 28 11 18 30 27 30 30 44 56 58 60 67 43 47 51 49 38 46 42 36 36 36 34 30 30 27 30 34 42 44 41 50 54 77 91 90 71 54 43 33 36 35 18 138 173 255 65 63
146 147 219 272 216 261 255 264 24 292 156 294 99 162 272 262 307 4 12 71 56 93 103 97 96 81 67 62 48 39 4 356 14 20 13 13 9 6 8 9 8 27 15 24 29 25 26 27 33 24 18 23 25 23 32 46 30 48 88 80 84 58 51 50 47 36 38 42 39 37 34 32 34 33 24 23 28 32 36 36 39 36 42 61 89 100 87 100 96 85 56 12 21 350 336 73 196
89 208 230 285 267 249 273 270 320 267 142 250 105 203 255 270 34 21 53 74 68 57 90 113 110 93 75 55 59 40 33 22 23 24 20 18 10 10 11 8 16 22 22 27 20 31 30 31 30 29 24 24 21 19 33 38 35 35 61 50 66 84 63 74 71 54 45 46 42 38 34 32 32 33 28 27 30 22 26 32 28 24 32 37 49 51 71 71 89 97 102 88 360 33 29 138 207
128 94 131 234 226 22 303 288 354 28 152 276 187 261 274 302 65 60 21 78 87 75 78 67 66 84 76 66 53 51 31 23 31 22 21 13 17 17 16 17 11 19 25 26 24 27 30 33 34 35 31 27 23 18 20 15 39 56 61 72 65 70 71 55 60 48 40 40 38 35 35 31 31 34 29 28 28 29 25 24 18 27 26 24 36 36 33 42 52 71 86 105 99 329 352 294 182
263 194 208 233 245 229 186 256 338 306 347 63 292 294 306 246 216 107 72 67 86 76 79 71 58 62 76 73 59 44 42 15 30 27 21 19 22 21 20 15 15 31 26 26 22 23 30 33 36 42 39 33 28 22 19 11 25 31 28 55 57 54 40 38 41 35 36 40 42 34 28 29 32 34 29 30 32 28 27 24 24 17 26 19 28 35 31 21 25 39 63 82 139 203 274 276 196
289 230 203 212 218 240 251 330 351 10 335 341 57 318 295 287 298 161 163 97 66 53 86 79 75 57 55 62 50 30 24 33 52 38 23 20 26 21 25 23 27 24 24 14 15 24 31 34 35 39 43 39 32 27 23 37 41 40 38 39 40 44 46 34 35 31 29 34 36 31 34 32 31 34 30 28 30 30 31 26 27 31 23 16 17 28 31 26 22 21 13 23 324 298 282 314 300
145 271 189 209 214 208 229 206 76 295 194 302 34 229 270 317 218 175 159 119 105 48 82 107 94 84 76 68 72 36 24 24 27 36 29 34 19 34 29 28 19 26 11 359 20 30 36 41 43 45 45 41 34 35 34 44 51 49 54 59 59 56 66 44 41 40 52 45 48 40 36 34 32 33 29 30 27 28 32 31 32 35 34 28 20 28 28 21 14 20 6 17 3 355 16 280 288
229 246 143 143 160 186 212 169 175 226 258 305 35 130 260 301 280 167 163 131 118 124 133 127 114 125 105 103 62 42 29 29 41 39 35 33 34 39 40 23 25 18 353 9 31 31 40 42 49 49 48 46 36 35 45 44 61 54 56 55 53 53 57 60 40 45 47 50 52 41 39 34 32 34 32 30 29 29 28 30 30 33 34 27 28 32 27 12 17 17 24 18 14 17 3 319 305
221 194 132 147 166 175 127 118 159 161 47 278 312 276 341 262 256 88 159 146 218 222 177 182 163 153 156 124 110 59 30 27 73 63 40 28 31 30 27 38 13 27 21 34 33 33 37 45 53 54 49 45 35 37 45 41 50 55 62 64 66 48 54 51 50 47 49 41 56 43 45 37 32 30 32 31 30 30 31 30 30 31 30 22 22 21 19 20 25 22 16 17 16 6 10 348 340
268 128 86 80 78 73 114 106 93 331 73 258 225 179 228 277 215 134 292 293 244 201 189 191 185 177 170 165 154 155 92 53 53 69 60 44 28 27 15 24 36 27 25 37 39 40 44 52 58 58 49 42 35 40 45 46 45 48 58 56 68 57 48 50 52 51 47 41 57 47 44 42 35 33 28 28 27 24 28 28 32 32 29 26 27 20 14 14 12 17 19 23 24 22 9 14 359
121 96 75 21 36 29 35 63 90 47 268 230 199 202 167 281 236 196 167 215 203 131 180 178 178 185 193 184 185 186 173 158 119 68 41 52 26 38 27 58 38 28 25 40 45 45 48 57 63 63 51 48 42 45 48 50 48 47 54 52 58 66 52 59 63 49 42 45 51 43 38 37 39 40 31 31 30 22 23 26 26 25 26 25 24 21 18 12 4 3 2 17 32 30 13 14 8
124 115 134 56 336 9 33 342 39 134 267 195 214 197 173 209 288 265 232 261 209 175 181 179 182 185 185 186 191 198 195 181 170 133 105 62 56 40 42 53 43 37 43 45 46 46 54 57 66 72 54 50 50 50 56 53 54 51 53 52 58 49 55 60 63 62 45 55 49 46 31 38 31 33 33 32 27 19 22 22 22 24 24 19 19 12 14 11 5 8 14 18 16 20 26 24 15
85 79 65 126 254 32 297 26 257 212 227 233 23 134 5 248 221 203 247 273 265 245 209 182 173 177 182 184 193 193 192 190 176 167 150 123 109 93 72 66 61 54 64 60 55 62 67 69 72 80 62 52 53 52 59 56 56 51 48 50 51 47 49 54 57 61 42 54 44 44 38 39 23 28 20 23 16 14 16 18 17 17 14 14 10 13 9 10 9 13 16 15 18 19 10 13 12
117 159 145 101 168 208 254 270 241 309 293 273 135 315 258 269 294 142 229 264 272 264 247 190 174 173 175 180 184 187 194 190 191 180 173 165 161 152 146 123 109 100 84 81 81 80 79 78 75 81 76 58 59 59 57 61 56 52 48 50 46 45 47 50 46 57 47 52 47 51 47 42 38 32 18 22 1 6 17 16 14 12 11 6 7 7 9 6 9 10 8 16 6 350 5 11 5
213 77 157 184 146 160 226 185 219 226 228 291 262 112 234 115 228 248 239 269 300 293 187 152 152 161 166 175 181 184 186 200 189 187 184 180 183 169 148 149 143 127 120 108 99 97 93 85 82 84 80 58 64 62 60 61 55 48 50 50 52 48 55 51 49 53 52 54 43 56 49 40 43 21 24 3 9 14 10 12 11 11 4 3 2 3 2 3 4 359 7 359 358 349 353 356 355
194 169 67 88 229 142 213 204 165 238 319 316 192 205 197 191 113 230 45 50 35 44 103 130 147 158 161 172 190 192 191 191 191 187 193 197 182 174 159 156 155 140 133 124 108 109 98 97 92 88 90 83 72 70 64 67 58 56 46 48 41 47 51 68 59 51 52 64 58 61 49 45 34 27 14 19 12 17 10 7 7 6 1 1 0 360 358 359 354 355 350 358 351 345 346 344 334
216 105 208 213 159 126 43 7 113 101 41 255 139 300 285 311 85 23 5 67 37 72 118 144 157 167 173 189 195 196 193 192 197 194 192 188 182 176 172 172 163 146 133 127 126 124 116 105 98 91 83 76 70 68 71 64 63 63 45 48 40 41 41 42 43 34 39 43 55 47 51 42 45 34 21 24 14 13 12 7 1 355 357 356 353 354 352 352 351 350 347 345 346 338 339 329 324
98 181 239 163 141 112 129 216 326 92 212 264 105 228 277 107 273 44 16 140 183 186 176 177 179 180 189 200 198 197 200 202 203 203 194 187 182 179 184 189 178 163 153 140 129 119 96 102 105 100 88 84 61 65 61 55 63 66 56 52 51 55 46 34 30 27 14 32 23 29 23 23 18 7 31 19 25 12 10 6 4 352 346 348 346 344 346 345 345 345 339 335 330 334 334 329 328
146 191 211 122 238 243 297 89 240 246 239 261 280 255 240 213 242 109 251 207 209 198 197 181 197 197 200 203 210 212 215 211 210 206 195 195 190 187 186 188 196 187 181 168 143 93 75 69 68 90 99 98 93 79 89 76 84 86 75 60 53 44 40 41 32 32 27 30 19 13 15 358 355 5 12 9 7 5 2 359 359 348 343 337 332 332 333 338 341 338 336 333 331 336 332 324 319
128 74 64 23 127 192 148 201 197 154 253 237 271 197 255 206 214 182 202 206 193 181 192 205 197 194 197 201 204 205 205 208 205 201 201 195 193 189 187 186 186 188 184 178 127 83 105 90 85 69 49 48 65 81 88 82 75 102 119 104 57 69 48 54 40 41 36 33 5 5 3 9 360 0 9 6 5 358 354 350 350 348 343 343 343 344 344 338 333 325 316 323 317 327 326 323 316
138 158 252 263 206 238 101 340 160 191 204 207 255 259 272 271 198 177 207 200 186 179 192 194 196 200 205 205 202 203 205 203 204 203 197 192 192 190 188 186 183 181 171 143 140 165 175 125 137 129 134 139 108 115 111 141 138 128 105 99 91 89 84 101 83 60 51 27 14 11 11 358 357 1 4 360 358 351 345 344 340 343 343 340 341 341 347 345 343 335 333 318 313 316 310 305 304
188 179 202 196 150 225 232 252 92 182 189 232 211 252 270 261 61 222 223 205 180 198 186 185 194 201 206 210 212 204 206 215 210 204 191 188 190 188 189 187 177 164 178 173 190 167 152 171 187 177 161 155 146 178 150 161 147 146 148 168 177 172 137 73 59 38 29 17 8 7 357 2 10 336 2 345 342 337 335 329 333 328 329 329 328 332 336 343 338 336 331 334 329 323 315 308 302